This is the latest recevied weather packets stored in our database for station/object OH6DL-15. If no packets are shown the sender has not sent any weather packets the latest 10 day(s).
| Time | Temp. | Humidity | Pressure | Rain* | Wind** | Luminosity | Snow |
|---|---|---|---|---|---|---|---|
| 1777874043 | 5° C | 68% | 1003.1 hPa | 0 mm | - | - | - |
| 1777865223 | 0° C | 90% | 1004.4 hPa | 0 mm | - | - | - |
| 1777864143 | -0.56° C | 90% | 1004.7 hPa | 0 mm | - | - | - |
| 1777863243 | -1.11° C | 88% | 1005 hPa | 0 mm | - | - | - |
| 1777862164 | -0.56° C | 86% | 1005.1 hPa | 0 mm | - | - | - |
| 1777856943 | 0° C | 85% | 1005.6 hPa | 0 mm | - | - | - |
| 1777853883 | 1.11° C | 77% | 1005.9 hPa | 0 mm | - | - | - |
| 1777846143 | 2.78° C | 77% | 1006.2 hPa | 0 mm | - | - | - |
| 1777845603 | 2.78° C | 76% | 1006.2 hPa | 0 mm | - | - | - |
| 1777843623 | 4.44° C | 77% | 1006.2 hPa | 0 mm | - | - | - |
| 1777838944 | 6.67° C | 55% | 1006.3 hPa | 0 mm | - | - | - |
| 1777834444 | 8.89° C | 46% | 1006 hPa | 0 mm | - | - | - |
| 1777832823 | 9.44° C | 45% | 1005.9 hPa | 0 mm | - | - | - |
| 1777831203 | 10.56° C | 47% | 1005.7 hPa | 0 mm | - | - | - |
| 1777829763 | 11.11° C | 43% | 1005.3 hPa | 0 mm | - | - | - |
| 1777826163 | 12.22° C | 41% | 1005.5 hPa | 0 mm | - | - | - |
| 1777818423 | 12.78° C | 38% | 1006 hPa | 0 mm | - | - | - |
| 1777817477 | 12.78° C | 40% | 1006.2 hPa | 0 mm | - | - | - |
| 1777813203 | 11.67° C | 43% | 1006.4 hPa | 0 mm | - | - | - |
| 1777811763 | 11.67° C | 41% | 1006.4 hPa | 0 mm | - | - | - |
| 1777807623 | 10.56° C | 53% | 1006.5 hPa | 0 mm | - | - | - |
| 1777805235 | 10° C | 52% | 1006.8 hPa | 0 mm | - | - | - |
| 1777798933 | 7.78° C | 66% | 1006.9 hPa | 0 mm | - | - | - |
| 1777797363 | 7.78° C | 68% | 1006.8 hPa | 0 mm | - | - | - |
| 1777795744 | 7.22° C | 68% | 1006.8 hPa | 0 mm | - | - | - |
* Rain latest hour (hover to see other rain measurements)
** Current wind speed in m/s (hover to see current wind gust speed)